Content
SEND FEEDBACK

Daily
Averages
Monthly
Summary
United States of America

ROME, GEORGIA


Home > North America > United States > Georgia
Elevation: 644 feet     Latitude: 34 20N     Longitude: 085 09W

WEATHER
 
SELECT A DAY
Number of Records: 210,742;   Date Range: 1/1/95 - 8/12/14
 
SHARE

PRINT THIS DATA

[ ← Previous Day ]
WEATHER ALMANAC - MARCH 5, 2014
[ Next Day → ]
[ °C ]   °F
Weather ElementAverageHighLow
Temperature43.8 °F60.1 °F (4:53 pm)30.9 °F (5:53 am)
Dewpoint34.6 °F39.9 °F (7:53 pm)30 °F (6:53 am)
Humidity73.7 %100 % (5:53 am)42 % (3:53 pm)
Barometer30.12 in30.19 in (7:53 am)30.05 in (4:53 pm)
Wind Speed1.4 mph5.8 mph (3:53 pm)
Weather ElementAverage
Visibility9.2 mi
Wind DirectionNNE (16.1 °)

Weather ElementTotal
Precipitation---
Heating Degree Days19.5 (Base 65)
Averaged from 23 records on March 5, 2014
WEATHER CONDITIONS BREAKOUT
WIND DIRECTION BREAKOUT
WEATHER BY HOUR - MARCH 5, 2014
[ °C ]   °F
Local TimeTemperatureDewpointHumidityBarometerVisibilityWind DirectionWind SpeedGust SpeedPrecipitationEventsConditions
1:53 AM36.0 °F33.1 °F89 %30.16 in10.0 miCalmClear
2:53 AM36.0 °F33.1 °F89 %30.15 in10.0 miCalmClear
3:53 AM35.1 °F32.0 °F89 %30.14 in9.0 miCalmClear
4:53 AM33.1 °F32.0 °F96 %30.14 in6.0 miCalmClear
5:53 AM30.9 °F30.9 °F100 %30.15 in6.0 miCalmClear
6:53 AM30.9 °F30.0 °F96 %30.16 in6.0 miCalmClear
7:53 AM30.9 °F30.0 °F96 %30.19 in7.0 miCalmClear
8:53 AM35.1 °F33.1 °F92 %30.19 in7.0 miNNE (30°)3.5 mphClear
9:53 AM39.9 °F30.9 °F70 %30.19 in10.0 miNNE (20°)3.5 mphClear
10:53 AM42.1 °F30.9 °F65 %30.18 in10.0 miNNE (20°)4.6 mphClear
11:53 AM48.0 °F30.9 °F52 %30.15 in10.0 miVariable3.5 mphClear
12:53 PM51.1 °F33.1 °F50 %30.11 in10.0 miVariable4.6 mphClear
1:53 PM55.0 °F36.0 °F49 %30.08 in10.0 miCalmClear
2:53 PM55.9 °F36.0 °F47 %30.08 in10.0 miVariable3.5 mphClear
3:53 PM59.0 °F36.0 °F42 %30.06 in10.0 miWNW (300°)5.8 mphClear
4:53 PM60.1 °F37.0 °F42 %30.05 in10.0 miVariable3.5 mphClear
5:53 PM57.0 °F37.9 °F49 %30.06 in10.0 miCalmClear
6:53 PM51.1 °F39.0 °F63 %30.07 in10.0 miCalmClear
7:53 PM48.0 °F39.9 °F74 %30.09 in10.0 miCalmClear
8:53 PM45.0 °F39.0 °F80 %30.10 in10.0 miCalmClear
9:53 PM44.1 °F39.0 °F82 %30.12 in10.0 miCalmClear
10:53 PM42.1 °F39.0 °F89 %30.10 in10.0 miCalmClear
11:53 PM39.9 °F37.9 °F93 %30.12 in10.0 miCalmClear
Hourly data recorded from KRMG, located miles away from Rome, Georgia







STORIES FROM OUR PARTNERS